View from above orbital plane
|
View from above satellite
|
Ground track
|
The orbit data is extracted from the following two-line orbital elements,
1 16262U 85108A 21104.59565991 .00001228 00000-0 70434-4 0 9991
2 16262 82.4767 316.1127 0012420 142.6609 217.5486 15.11622254929913
Epoch (UTC): | 14 April 2021 14:17:45 |
Eccentricity: | 0.0012420 |
inclination: | 82.4767° |
perigee height: | 522 km |
apogee height: | 540 km |
right ascension of ascending node: | 316.1127° |
argument of perigee: | 142.6609° |
revolutions per day: | 15.11622254 |
mean anomaly at epoch: | 217.5486° |
orbit number at epoch: | 92991 |
The dashed part of the orbit path shows where the satellite is in the earth's shadow,
|
|